Погода в Якимове

Россия / Костромская область     57°50′54″N   43°38′15″E
В апреле 2022 года жителям России запретили посещать сайт meteo.paraplan.net по решению Генеральной прокуратуры. Аудитория сайта уменьшилась в 10 раз. Владельцы сайта не видят смысла в поддержке погодного сервера в таких условиях. Сайт будет закрыт в октябре.
темп.,
°C
ветер,
м/с
пор.,
м/с
влажн.,
%
обл.,
%
осадки,
мм/ч
давл.,
гПа
погр.,
м
30 сентября, пт
пт3000:00+4ююв229731 0.0 101714
03:00+4ююв229772 0.0 101835
06:00+5юв389784 0.0 1019152
09:00+8ююв3989100 0.0 1020299
12:00+11ююв488087 0.0 1020509
15:00+13ююв5978100 0.0 1019786
18:00+12ююв51287100 0.0 1019461
21:00+11ююв41291100 0.0 1019419
1 октября, сб
сб100:00+10ююв4129590 0.0 1018322
03:00+10ю4109590 0.0 1018290
06:00+9ююв3897100 0.0 1018219
09:00+11ю2796100 0.3 1018312
12:00+12ююв3695100 0.3 1017322
15:00+12ююв2597100 1.4 1015242
18:00+12юв2699100 2.7 1014235
21:00+13ююв3799100 3.3 1012281
2 октября, вс
вс200:00+13ююв41098100 0.9 1010526
03:00+13ююв4997100 1.0 1008429
06:00+13ююв41097100 1.3 1006476
09:00+13ю51197100 5.1 1004842
12:00+12юз71279100 0.6 10051351
15:00+10ююз61185100 0.6 10061079
18:00+10юз51087100 0.0 1007980
21:00+10юз4985100 0.0 1008673
3 октября, пн
пн300:00+10ююз378998 0.0 1009346
03:00+7ююв1195100 0.0 100910
06:00+9в3688100 0.0 1009183
09:00+11в51380100 0.0 1007405
12:00+15юв61285100 0.3 1006636
15:00+17юв61374100 0.3 1005875
18:00+15ююв71568100 0.0 1006824
21:00+15ююв81773100 0.0 10061226
4 октября, вт
вт400:00+14ююв71478100 0.0 10071222
03:00+12ю61376100 0.2 10091022
06:00+10ю5118295 0.2 1011621
09:00+12ю6127541 0.3 10131283
12:00+13ююз7115970 0.2 10141557
15:00+13ююз61055100 0.2 10161706
18:00+12ю4105897 0.0 1018776
21:00+8ююв411775 0.0 1019310